[[{"header":{"parameterUnit":"m.s-1","parameterCategory":1,"la1":30.2991,"la2":30.254,"lo1":-89.0895,"lo2":-89.0444,"dy":0.0017,"dx":0.0017,"nx":28,"ny":28,"refTime":"2023-07-27T09:00:00:Z","depth":0,"parameterNumber":2,"parameterNumberName":"U-component_of_WINDS"},"data":[0,0,0,0,0,0,0,0,0,0,0,0,0,0,0,0,0,0,0,0,0,0,0,0,0,0,0,0,0,0,0,0,0,0,0,0,0,0,0,0,0,0,0,0,0,0,0,0,0,0,0,0,0,0,0,0,0,0,1.5461,1.5462,0,1.555,1.5551,1.5552,1.5549,1.5548,1.5546,1.5545,1.5637,1.564,1.5644,0,0,0,0,0,0,0,0,0,0,0,0,0,1.5285,1.5288,1.5461,1.5462,1.5463,1.555,1.5551,1.5553,1.5549,1.5548,1.5546,1.5545,1.5635,1.564,1.5644,0,0,0,0,0,0,0,0,0,0,0,0,0,1.5367,1.5289,1.546,1.5472,1.5474,1.555,1.5551,1.5553,1.5549,1.5548,1.5546,1.5544,1.5634,1.5639,1.5644,1.5715,0,0,1.5661,1.5663,0,0,0,0,0,0,0,0,1.5362,1.5373,1.5469,1.5471,1.5473,1.5537,1.5523,1.5607,1.555,1.5521,1.5545,1.5543,1.5605,1.5612,1.5633,1.5719,1.5723,1.5661,1.5665,1.5667,1.5668,0,0,0,0,0,0,0,1.5356,1.5369,1.5496,1.547,1.5473,1.5472,1.5481,1.5539,1.5572,1.5523,1.5523,1.5534,1.5606,1.5628,1.5635,1.5725,1.5661,1.5666,1.5669,1.5671,1.5871,1.5873,0,0,0,0,0,0,1.5348,1.5365,1.5493,1.5499,1.5412,1.5476,1.5487,1.5518,1.5571,1.5578,1.5535,1.5533,1.562,1.5629,1.5639,1.5723,1.5667,1.5672,1.5675,1.5869,1.5871,1.5874,0,0,0,0,0,0,1.5345,1.536,1.549,1.5432,1.5448,1.5481,1.5516,1.5521,1.5543,1.5581,1.5586,1.5552,1.5619,1.5631,1.5696,1.5726,1.5674,1.5679,1.5866,1.587,1.5872,1.5893,0,0,0,0,0,0,1.534,1.5359,1.5386,1.5432,1.5451,1.5546,1.5518,1.5524,1.5553,1.5551,1.5598,1.5604,1.5618,1.5688,1.5701,1.5733,1.5684,1.5864,1.5868,1.5871,1.589,1.5897,1.5902,0,0,0,0,0,1.5333,1.5389,1.5388,1.5403,1.5487,1.5548,1.5558,1.5573,1.5555,1.5583,1.5606,1.5603,1.5721,1.5694,1.5709,1.5743,1.5862,1.5867,1.5871,1.5887,1.5895,1.5902,0,0,0,0,0,0,1.5346,1.5395,1.5394,1.5467,1.5503,1.5547,1.5582,1.5582,1.5624,1.562,1.5637,1.5648,1.5712,1.5734,1.5704,1.5813,1.5789,1.5797,1.5796,1.5804,1.581,1.5803,1.5688,0,0,0,0,0,1.5357,1.5403,1.5444,1.5503,1.5521,1.5549,1.5576,1.5584,1.5622,1.5638,1.5666,1.5703,1.5748,1.5778,1.5822,1.5894,1.5903,1.5924,1.593,1.5935,1.5941,1.5979,1.5988,1.5889,1.5889,1.5889,0,0,1.5381,1.5413,1.5441,1.5507,1.5536,1.5582,1.5562,1.5612,1.5646,1.5645,1.5707,1.573,1.5772,1.584,1.5871,1.586,1.5971,1.5941,1.5945,1.5948,1.5985,1.5994,1.6002,1.5892,1.5891,1.5891,0,0,1.5446,1.5477,1.5529,1.5558,1.5602,1.5619,1.5632,1.5676,1.569,1.5753,1.5753,1.5794,1.5872,1.5901,1.5926,1.6002,1.5999,1.6016,1.6048,1.6084,1.6092,1.6099,1.6124,1.6133,1.6022,1.6022,1.6022,0,1.547,1.554,1.5555,1.5605,1.5633,1.5635,1.5687,1.5715,1.5771,1.5789,1.5777,1.5873,1.5902,1.5976,1.5994,1.6015,1.6029,1.601,1.609,1.6097,1.6104,1.6128,1.6137,1.6024,1.6024,1.6024,1.6023,0,1.5565,1.5614,1.565,1.5704,1.5736,1.5787,1.5809,1.584,1.5846,1.5864,1.5927,1.5962,1.6011,1.603,1.6036,1.6104,1.6096,1.6086,1.6062,1.6115,1.6137,1.6147,1.6026,1.6026,1.6025,1.6025,0,0,1.5641,1.5702,1.5715,1.5738,1.5787,1.5824,1.5874,1.5923,1.5948,1.5987,1.6028,1.6094,1.6085,1.6113,1.6123,1.6155,1.621,1.6141,1.6143,1.6151,1.6285,1.629,1.6301,1.6209,1.6211,1.6212,1.628,0,1.571,1.5799,1.5814,1.5892,1.5936,1.5938,1.5981,1.6015,1.6034,1.6073,1.6094,1.6139,1.6125,1.6142,1.6174,1.6196,1.6237,1.6192,1.6246,1.6248,1.6234,1.6313,1.6319,1.6382,1.629,1.6291,1.6292,0,1.5803,1.5843,1.5925,1.5966,1.5985,1.6024,1.6068,1.6107,1.6144,1.6156,1.6187,1.6192,1.6243,1.6218,1.6288,1.6257,1.628,1.6294,1.6297,1.6302,1.6272,1.6317,1.6402,1.6411,1.6307,1.6306,1.6305,0,1.5847,1.5922,1.598,1.6001,1.605,1.6077,1.6099,1.6135,1.6163,1.6202,1.622,1.6265,1.6289,1.6323,1.634,1.632,1.6408,1.6384,1.6417,1.6417,1.6434,1.6433,1.6522,1.6452,1.6452,1.6452,1.6452,0,1.5922,1.5971,1.6001,1.6036,1.6091,1.6108,1.6162,1.6183,1.6215,1.6254,1.6259,1.6295,1.6316,1.6355,1.6369,1.6423,1.6435,1.6444,1.6447,1.6443,1.6441,1.6457,1.6453,1.6455,1.6454,1.6454,1.6453,0,1.598,1.6002,1.6065,1.6107,1.6118,1.6157,1.6192,1.6226,1.6244,1.6293,1.6306,1.6334,1.6381,1.6401,1.6459,1.6468,1.6529,1.653,1.6516,1.6517,1.6548,1.6544,1.6649,1.6663,1.6586,1.6586,1.6587,0,1.6026,1.6064,1.6109,1.6135,1.6158,1.62,1.6228,1.6246,1.6275,1.632,1.6348,1.6395,1.6433,1.6506,1.6532,1.6575,1.6576,1.661,1.6582,1.6576,1.6574,1.6571,1.6574,1.6614,1.6615,1.6615,1.6616,0,1.6103,1.6111,1.6152,1.6196,1.6229,1.6264,1.6299,1.632,1.6343,1.6375,1.6422,1.6452,1.6509,1.6555,1.66,1.6621,1.6622,1.6624,1.6634,1.6629,1.6619,1.6623,1.6528,1.6622,1.6621,1.6621,1.662,1.662,1.6155,1.6188,1.6224,1.6269,1.6297,1.6328,1.6362,1.6384,1.6424,1.6472,1.648,1.653,1.6566,1.6626,1.6649,1.6688,1.6679,1.6694,1.6697,1.67,1.6701,1.6614,1.6696,1.6696,1.6696,1.6696,1.6696,0,1.6231,1.6254,1.6295,1.6343,1.6377,1.6375,1.6413,1.6442,1.6485,1.6519,1.6556,1.6609,1.6653,1.6681,1.6725,1.6751,1.6752,1.6761,1.6759,1.6763,1.6707,1.6693,1.6759,1.6759,1.6759,1.6759,1.6759,1.6759,1.6274,1.6329,1.6342,1.6411,1.6434,1.6482,1.6504,1.6533,1.6559,1.6618,1.6655,1.6673,1.6704,1.675,1.679,1.6797,1.6812,1.6822,1.6828,1.6774,1.6768,1.6761,1.6748,1.6825,1.6826,1.6882,1.6882,1.6883]},{"header":{"parameterUnit":"m.s-1","parameterCategory":1,"la1":30.2991,"la2":30.254,"lo1":-89.0895,"lo2":-89.0444,"dy":0.0017,"dx":0.0017,"nx":28,"ny":28,"refTime":"2023-07-27T09:00:00:Z","depth":0,"parameterNumber":3,"parameterNumberName":"V-component_of_WINDS"},"data":[0,0,0,0,0,0,0,0,0,0,0,0,0,0,0,0,0,0,0,0,0,0,0,0,0,0,0,0,0,0,0,0,0,0,0,0,0,0,0,0,0,0,0,0,0,0,0,0,0,0,0,0,0,0,0,0,0,0,2.3002,2.3001,0,2.2924,2.2923,2.2922,2.2827,2.2826,2.2824,2.2823,2.2741,2.274,2.274,0,0,0,0,0,0,0,0,0,0,0,0,0,2.3066,2.3066,2.3002,2.3001,2.3,2.2924,2.2923,2.2922,2.2828,2.2826,2.2824,2.2822,2.2741,2.274,2.2739,0,0,0,0,0,0,0,0,0,0,0,0,0,2.3019,2.3065,2.3002,2.2944,2.2938,2.2925,2.2923,2.2922,2.2828,2.2826,2.2824,2.2822,2.2742,2.2741,2.2739,2.2776,0,0,2.2736,2.2735,0,0,0,0,0,0,0,0,2.3021,2.3016,2.2953,2.2948,2.2941,2.2883,2.2916,2.2873,2.2829,2.287,2.2823,2.282,2.279,2.2785,2.2775,2.2773,2.2769,2.2736,2.2735,2.2734,2.2734,0,0,0,0,0,0,0,2.3025,2.3019,2.2971,2.2953,2.2945,2.2921,2.2912,2.2907,2.2843,2.2866,2.2859,2.2851,2.2786,2.2776,2.2772,2.2768,2.2736,2.2735,2.2734,2.2733,2.279,2.2792,0,0,0,0,0,0,2.3037,2.3022,2.2974,2.2969,2.2977,2.2921,2.2911,2.2904,2.2843,2.2832,2.2853,2.2847,2.2779,2.2774,2.2769,2.2807,2.2734,2.2733,2.2733,2.2788,2.279,2.2793,0,0,0,0,0,0,2.3039,2.3034,2.2977,2.2994,2.2985,2.2923,2.2916,2.2904,2.2894,2.2833,2.2821,2.2855,2.2778,2.2771,2.2775,2.2803,2.2733,2.2732,2.2785,2.2788,2.2792,2.2884,0,0,0,0,0,0,2.3041,2.3035,2.3049,2.2995,2.2984,2.2985,2.2917,2.2904,2.2892,2.2883,2.2832,2.2821,2.2775,2.2777,2.2774,2.28,2.2731,2.2782,2.2787,2.279,2.2878,2.289,2.29,0,0,0,0,0,2.3044,2.3078,2.305,2.3045,2.3,2.2987,2.2981,2.2928,2.2895,2.2908,2.2869,2.2823,2.2801,2.2779,2.2774,2.28,2.278,2.2785,2.279,2.2873,2.2887,2.29,0,0,0,0,0,0,2.3136,2.307,2.3038,2.3056,2.3028,2.2971,2.2986,2.2945,2.2925,2.2918,2.2853,2.2842,2.2854,2.2827,2.2804,2.2831,2.2783,2.2788,2.2848,2.2861,2.2872,2.2877,2.273,0,0,0,0,0,2.3159,2.3154,2.3096,2.3117,2.3105,2.3048,2.304,2.3002,2.297,2.2957,2.2919,2.2889,2.2875,2.2867,2.2851,2.2874,2.286,2.289,2.2901,2.291,2.2914,2.2922,2.2934,2.2809,2.2809,2.2809,0,0,2.3205,2.3168,2.3169,2.3135,2.3109,2.3104,2.3039,2.3037,2.3032,2.2957,2.2958,2.2929,2.2891,2.2905,2.2909,2.2883,2.2946,2.2916,2.2924,2.2923,2.2929,2.2941,2.2951,2.2813,2.2812,2.2811,0,0,2.3287,2.3259,2.3273,2.3248,2.321,2.3172,2.3175,2.3124,2.3102,2.3103,2.3045,2.3039,2.3017,2.2992,2.2976,2.3048,2.3004,2.3045,2.3102,2.3111,2.3121,2.3129,2.3153,2.3162,2.3049,2.305,2.305,0,2.3349,2.3341,2.3285,2.3287,2.3273,2.3205,2.3218,2.3196,2.3154,2.3146,2.3118,2.3088,2.3058,2.3064,2.3081,2.3072,2.3072,2.305,2.3124,2.3132,2.3139,2.3161,2.317,2.3055,2.3054,2.3054,2.3053,0,2.3418,2.3413,2.3429,2.339,2.3378,2.3386,2.3331,2.3325,2.3288,2.3253,2.3253,2.3215,2.3189,2.3188,2.3152,2.3189,2.3174,2.3136,2.3086,2.3157,2.3176,2.3184,2.3062,2.306,2.3059,2.3057,0,0,2.3554,2.3485,2.3492,2.3473,2.3426,2.342,2.3424,2.34,2.3395,2.3369,2.3369,2.3352,2.3317,2.3299,2.326,2.3268,2.3325,2.3229,2.3227,2.3246,2.3361,2.3388,2.3399,2.3297,2.3298,2.3299,2.3363,0,2.3625,2.3629,2.3579,2.3595,2.3589,2.3525,2.3528,2.3499,2.3466,2.3456,2.3419,2.3407,2.3362,2.3351,2.3357,2.3317,2.3347,2.3312,2.3294,2.3295,2.3304,2.3409,2.3438,2.3501,2.3371,2.3372,2.3373,0,2.3709,2.3687,2.3703,2.3654,2.365,2.3654,2.3627,2.3618,2.3583,2.3558,2.3539,2.3494,2.3493,2.3448,2.3444,2.3421,2.3411,2.3391,2.3392,2.3387,2.3337,2.3405,2.3519,2.3528,2.3385,2.3384,2.3383,0,2.3804,2.378,2.3785,2.3772,2.3715,2.3719,2.3696,2.3659,2.3647,2.3623,2.3614,2.3591,2.3578,2.356,2.3509,2.3481,2.3511,2.3462,2.3489,2.349,2.3497,2.3497,2.3609,2.3494,2.3494,2.3494,2.3493,0,2.3888,2.39,2.3827,2.3831,2.3842,2.3785,2.3797,2.3767,2.3735,2.373,2.3674,2.367,2.3605,2.3594,2.3554,2.3556,2.3551,2.353,2.3519,2.3534,2.3536,2.3525,2.3519,2.3496,2.3495,2.3495,2.3495,0,2.3995,2.3948,2.395,2.3897,2.3883,2.3894,2.3847,2.3848,2.3812,2.3807,2.3802,2.3746,2.373,2.3678,2.3649,2.3622,2.3636,2.3616,2.3648,2.3641,2.367,2.3667,2.3778,2.3788,2.3669,2.367,2.3671,0,2.4051,2.4058,2.4006,2.4,2.3979,2.3969,2.3957,2.3901,2.389,2.3851,2.3856,2.3836,2.3816,2.3794,2.3749,2.3726,2.3704,2.3744,2.37,2.3715,2.3702,2.3702,2.3701,2.3753,2.3755,2.3756,2.3757,0,2.4154,2.413,2.4115,2.4092,2.4079,2.4058,2.4034,2.4031,2.3968,2.3959,2.3943,2.3928,2.3899,2.3879,2.3849,2.3823,2.3779,2.3772,2.3777,2.3791,2.3809,2.3798,2.3672,2.3769,2.3768,2.3767,2.3767,2.3766,2.4235,2.4239,2.4202,2.4187,2.4163,2.4142,2.4139,2.4103,2.4089,2.4061,2.4029,2.4016,2.398,2.3935,2.3913,2.3901,2.3877,2.3885,2.3886,2.3888,2.3895,2.3812,2.3895,2.3895,2.3894,2.3894,2.3894,0,2.4334,2.4307,2.4294,2.4262,2.425,2.4212,2.4183,2.4175,2.4165,2.4135,2.4117,2.4098,2.4078,2.4032,2.4008,2.4007,2.3986,2.4002,2.4001,2.3995,2.3918,2.3915,2.4019,2.4019,2.4019,2.4019,2.4019,2.4019,2.4383,2.4387,2.4359,2.4349,2.4322,2.431,2.4296,2.4275,2.4251,2.4232,2.4216,2.4187,2.415,2.4122,2.4102,2.4089,2.4081,2.4104,2.4084,2.4013,2.4001,2.3989,2.3986,2.4103,2.4103,2.4161,2.4162,2.4162]}]]